KD4LXC-1 Weather Reports


time (UTC)temp
C
wind
direction
speed
KPH
gust
KPH
rain 1hr
cm
rain 24hr
cm
rain mn
cm
humidity
%
barometer
mb
20260506102720 21 63 0.0 0.0 0.00 0.00 0.00 25 887.3
20260506101511 21 69 0.0 0.0 0.00 0.00 0.00 24 886.9
20260506100302 21 79 0.0 0.0 0.00 0.00 0.00 23 887.1
20260506095053 21 58 0.0 0.0 0.00 0.00 0.00 22 887.1
20260506093844 21 39 0.0 0.0 0.00 0.00 0.00 21 887.0
20260506092635 21 356 0.0 0.0 0.00 0.00 0.00 20 887.1
20260506091426 21 0 0.0 0.0 0.00 0.00 0.00 19 887.0
20260506090217 21 0 0.0 0.0 0.00 0.00 0.00 18 887.0
20260506085008 21 356 0.0 0.0 0.00 0.00 0.00 18 886.6
20260506083759 21 354 0.0 0.0 0.00 0.00 0.00 17 886.6
20260506082549 21 0 0.0 0.0 0.00 0.00 0.00 17 886.9
20260506081341 21 13 0.0 0.0 0.00 0.00 0.00 17 886.9
20260506080132 21 3 0.0 0.0 0.00 0.00 0.00 16 886.8
20260506072505 21 46 0.0 0.0 0.00 0.00 0.00 16 887.0
20260506071256 21 44 0.0 0.0 0.00 0.00 0.00 15 887.0
20260506062419 22 70 0.0 0.0 0.00 0.00 0.00 15 887.5
20260506061210 22 44 0.0 0.0 0.00 0.00 0.00 15 887.4
20260506051125 21 58 0.0 0.0 0.00 0.00 0.00 15 887.2
20260506044707 21 15 0.0 0.0 0.00 0.00 0.00 15 887.3
20260506043458 21 0 0.0 0.0 0.00 0.00 0.00 15 887.5
20260506042249 21 0 0.0 0.0 0.00 0.00 0.00 15 887.3
20260506041040 21 35 0.0 0.0 0.00 0.00 0.00 15 887.4
20260506035831 22 356 0.0 0.0 0.00 0.00 0.00 14 886.9
20260506034622 22 7 0.0 0.0 0.00 0.00 0.00 14 886.7
20260506033413 22 3 0.0 0.0 0.00 0.00 0.00 14 886.5
20260506032204 22 13 0.0 0.0 0.00 0.00 0.00 13 886.4
20260506030955 22 7 0.0 0.0 0.00 0.00 0.00 13 886.2
20260506025746 22 0 0.0 0.0 0.00 0.00 0.00 13 885.5
20260506024537 22 0 0.0 0.0 0.00 0.00 0.00 12 885.9
20260506023328 23 0 0.0 0.0 0.00 0.00 0.00 12 885.7
20260506022119 23 356 0.0 0.0 0.00 0.00 0.00 11 885.7
20260506020910 23 354 0.0 0.0 0.00 0.00 0.00 11 885.5
20260506015701 24 0 0.0 0.0 0.00 0.00 0.00 10 885.5
20260506014452 25 10 0.0 0.0 0.00 0.00 0.00 9 885.2
20260506013243 25 7 0.0 0.0 0.00 0.00 0.00 9 885.2
20260506012034 26 6 0.0 0.0 0.00 0.00 0.00 8 885.2
20260506010825 26 0 0.0 0.0 0.00 0.00 0.00 7 885.1
20260506005616 26 0 0.0 0.0 0.00 0.00 0.00 7 884.8
20260506004407 27 6 0.0 0.0 0.00 0.00 0.00 6 884.9
20260506003158 27 0 0.0 0.0 0.00 0.00 0.00 5 884.9
20260506001949 28 3 0.0 0.0 0.00 0.00 0.00 4 884.6
20260506000740 28 352 0.0 0.0 0.00 0.00 0.00 2 884.1
20260505235531 30 353 0.0 0.0 0.00 0.00 0.00 1 884.2
20260505234323 30 0 0.0 0.0 0.00 0.00 0.00 0 884.2
20260505233113 31 356 0.0 0.0 0.00 0.00 0.00 100 884.4
20260505231904 31 336 0.0 0.0 0.00 0.00 0.00 100 884.5
20260505230655 31 226 0.0 0.0 0.00 0.00 0.00 100 884.7
20260505225446 31 217 0.0 0.0 0.00 0.00 0.00 100 884.5
20260505224237 32 263 0.0 0.0 0.00 0.00 0.00 100 884.7
20260505223028 32 353 0.0 0.0 0.00 0.00 0.00 100 884.8
20260505221819 32 338 0.0 0.0 0.00 0.00 0.00 100 885.0
20260505220610 32 246 0.0 0.0 0.00 0.00 0.00 100 885.1
20260505215400 32 266 0.0 0.0 0.00 0.00 0.00 100 885.1
20260505214151 33 243 0.0 0.0 0.00 0.00 0.00 100 885.5
20260505212942 33 339 0.0 0.0 0.00 0.00 0.00 100 885.4
20260505211733 33 194 0.0 0.0 0.00 0.00 0.00 100 885.3
20260505210524 33 169 0.0 0.0 0.00 0.00 0.00 100 885.6
20260505205315 33 203 0.0 0.0 0.00 0.00 0.00 100 885.6
20260505204106 34 188 0.0 0.0 0.00 0.00 0.00 100 885.5
20260505202857 33 183 0.0 0.0 0.00 0.00 0.00 100 885.9
20260505201648 33 205 0.0 0.0 0.00 0.00 0.00 100 885.9
20260505200439 33 211 0.0 0.0 0.00 0.00 0.00 100 886.1
20260505195230 33 231 0.0 0.0 0.00 0.00 0.00 100 886.2
20260505194021 33 187 0.0 0.0 0.00 0.00 0.00 100 886.2
20260505192812 33 217 0.0 0.0 0.00 0.00 0.00 100 886.3
20260505191603 33 225 0.0 0.0 0.00 0.00 0.00 0 886.5
20260505190354 33 263 0.0 0.0 0.00 0.00 0.00 0 886.6
20260505185145 33 183 0.0 0.0 0.00 0.00 0.00 0 886.6
20260505183936 33 191 0.0 0.0 0.00 0.00 0.00 1 886.8
20260505182727 33 166 0.0 0.0 0.00 0.00 0.00 0 886.9
20260505181518 33 176 0.0 0.0 0.00 0.00 0.00 1 887.0
20260505180309 33 180 0.0 0.0 0.00 0.00 0.00 2 887.0
20260505175100 33 190 0.0 0.0 0.00 0.00 0.00 3 887.4
20260505173851 33 150 0.0 0.0 0.00 0.00 0.00 3 887.3
20260505172642 32 186 0.0 0.0 0.00 0.00 0.00 4 887.3
20260505171433 32 257 0.0 0.0 0.00 0.00 0.00 4 887.6
20260505170224 32 191 0.0 0.0 0.00 0.00 0.00 5 887.6
20260505165015 32 159 0.0 0.0 0.00 0.00 0.00 6 887.3
20260505163806 32 243 0.0 0.0 0.00 0.00 0.00 7 887.4
20260505162557 31 274 0.0 0.0 0.00 0.00 0.00 9 887.4
20260505161348 31 127 0.0 0.0 0.00 0.00 0.00 10 887.4
20260505160139 30 204 0.0 0.0 0.00 0.00 0.00 11 887.3
20260505152514 28 221 0.0 0.0 0.00 0.00 0.00 15 887.3
20260505151303 27 224 0.0 0.0 0.00 0.00 0.00 16 887.1
20260505124714 21 179 0.0 0.0 0.00 0.00 0.00 30 886.3
20260505123505 21 179 0.0 0.0 0.00 0.00 0.00 31 886.4
20260505122256 21 278 0.0 0.0 0.00 0.00 0.00 31 886.1
20260505121050 21 257 0.0 0.0 0.00 0.00 0.00 31 885.9
20260505121047 21 257 0.0 0.0 0.00 0.00 0.00 31 885.9
20260505115838 21 222 0.0 0.0 0.00 0.00 0.00 30 885.9
20260505114629 21 186 0.0 0.0 0.00 0.00 0.00 30 885.6
20260505113420 21 257 0.0 0.0 0.00 0.00 0.00 31 885.6
20260505112211 21 248 0.0 0.0 0.00 0.00 0.00 31 885.6
20260505111003 21 350 0.0 0.0 0.00 0.00 0.00 31 885.4